sat.trackr.live / text

‹ back to catalog

2026-027F

NORAD 67751 · 2026-027F

PAYLOAD ACTIVE UNKNOWN

§ Identity

Operator
Country
PRC
Launch date
2026-02-12
Launch site
SCSLA
Launch vehicle
Mass (kg)
RCS (m²)

External: N2YO · Heavens-Above · Gunter

§ Orbital elements

Epoch: 2026-09-20T21:46:59.489472Z

Period
95.17 min
Inclination
97.5181°
Eccentricity
0.0010720
Mean motion
15.13079285 rev/d
Perigee alt
519.4 km
Apogee alt
534.2 km
Semi-major
6,905.0 km
B*
2.0376e-4
RAAN
29.9122°
Arg perigee
139.6478°
Mean anomaly
220.5550°
Rev number
3,338

§ Raw data

2026-027F1 67751U 26027F   26263.90763298  .00003544  00000+0  20376-3 0  99922 67751  97.5181  29.9122 0010720 139.6478 220.5550 15.13079285 33389

JSON: /api/v1/satellites/67751 · /tle

For live sub-satellite position, see the globe view (requires WebGL).

§ Visibility from observer

Set your observer location to see the next 7 days of passes ≥ 10°. The values pass through the URL so the page stays shareable.

No JS? Fill the form by hand. The geolocation button needs JavaScript.